Year,Month,Day,Hour,Minute,Value (Times are PST for temperature in C)
2007,12,03,09,59,9.90
2007,12,03,10,00,9.90
2007,12,03,10,01,9.90
2007,12,03,10,02,9.90
2007,12,03,10,03,10.00
2007,12,03,10,04,10.10
2007,12,03,10,05,10.10
2007,12,03,10,06,10.10
2007,12,03,10,07,10.10
2007,12,03,10,08,10.10
2007,12,03,10,09,10.10
2007,12,03,10,10,10.10
2007,12,03,10,11,10.00
2007,12,03,10,12,10.00
2007,12,03,10,13,10.00
2007,12,03,10,14,10.00
2007,12,03,10,15,9.90
2007,12,03,10,16,9.90
2007,12,03,10,17,9.90
2007,12,03,10,18,10.00
2007,12,03,10,19,10.10
2007,12,03,10,20,10.10
2007,12,03,10,21,10.10
2007,12,03,10,22,10.10
2007,12,03,10,23,10.10
2007,12,03,10,24,10.10
2007,12,03,10,25,10.10
2007,12,03,10,26,10.10
2007,12,03,10,27,10.10
2007,12,03,10,28,10.10
2007,12,03,10,29,10.10
2007,12,03,10,30,10.10
2007,12,03,10,31,10.10
2007,12,03,10,32,10.10
2007,12,03,10,33,10.10
2007,12,03,10,34,10.10
2007,12,03,10,35,10.10
2007,12,03,10,36,10.10
2007,12,03,10,37,10.10
2007,12,03,10,38,10.10
2007,12,03,10,39,10.10
2007,12,03,10,40,10.10
2007,12,03,10,41,10.20
2007,12,03,10,42,10.20
2007,12,03,10,43,10.20
2007,12,03,10,44,10.20
2007,12,03,10,45,10.20
2007,12,03,10,46,10.20
2007,12,03,10,47,10.20
2007,12,03,10,48,10.20
2007,12,03,10,49,10.20
2007,12,03,10,50,10.20
2007,12,03,10,51,10.30
2007,12,03,10,52,10.30
2007,12,03,10,53,10.30
2007,12,03,10,54,10.30
2007,12,03,10,55,10.30
2007,12,03,10,56,10.30
2007,12,03,10,57,10.30
2007,12,03,10,58,10.30
2007,12,03,10,59,10.30
2007,12,03,11,00,10.30
2007,12,03,11,01,10.30
2007,12,03,11,02,10.20
2007,12,03,11,03,10.20
2007,12,03,11,04,10.20
2007,12,03,11,05,10.10
2007,12,03,11,06,10.20
2007,12,03,11,07,10.20
2007,12,03,11,08,10.10
2007,12,03,11,09,10.10
2007,12,03,11,10,10.20
2007,12,03,11,11,10.20
2007,12,03,11,12,10.20
2007,12,03,11,13,10.10
2007,12,03,11,14,10.10
2007,12,03,11,15,10.10
2007,12,03,11,16,10.10
2007,12,03,11,17,10.20
2007,12,03,11,18,10.20
2007,12,03,11,19,10.20
2007,12,03,11,20,10.20
2007,12,03,11,21,10.10
2007,12,03,11,22,10.20
2007,12,03,11,23,10.30
2007,12,03,11,24,10.30
2007,12,03,11,25,10.20
2007,12,03,11,26,10.20
2007,12,03,11,27,10.20
2007,12,03,11,28,10.30
2007,12,03,11,29,10.30
2007,12,03,11,30,10.30
2007,12,03,11,31,10.30
2007,12,03,11,32,10.30
2007,12,03,11,33,10.20
2007,12,03,11,34,10.20
2007,12,03,11,35,10.20
2007,12,03,11,36,10.20
2007,12,03,11,37,10.20
2007,12,03,11,38,10.20
2007,12,03,11,39,10.20
2007,12,03,11,40,10.30
2007,12,03,11,41,10.40
2007,12,03,11,42,10.40
2007,12,03,11,43,10.40
2007,12,03,11,44,10.40
2007,12,03,11,45,10.40
2007,12,03,11,46,10.40
2007,12,03,11,47,10.50
2007,12,03,11,48,10.70
2007,12,03,11,49,10.80
2007,12,03,11,50,10.90
2007,12,03,11,51,11.10
2007,12,03,11,52,11.30
2007,12,03,11,53,11.40
2007,12,03,11,54,11.50
2007,12,03,11,55,11.70
2007,12,03,11,56,11.80
2007,12,03,11,57,11.80
2007,12,03,11,58,12.00
2007,12,03,11,59,12.20
2007,12,03,12,00,12.40
2007,12,03,12,01,12.50
2007,12,03,12,02,12.60
2007,12,03,12,03,12.60
2007,12,03,12,04,12.50
2007,12,03,12,05,12.50
2007,12,03,12,06,12.60
2007,12,03,12,07,12.60
2007,12,03,12,08,12.60
2007,12,03,12,09,12.70
2007,12,03,12,10,12.60
2007,12,03,12,11,12.70
2007,12,03,12,12,12.90
2007,12,03,12,13,13.00
2007,12,03,12,14,13.10
2007,12,03,12,15,13.20
2007,12,03,12,16,13.20
2007,12,03,12,17,13.20
2007,12,03,12,18,13.20
2007,12,03,12,19,13.20
2007,12,03,12,20,13.10
2007,12,03,12,21,13.10
2007,12,03,12,22,13.10
2007,12,03,12,23,13.10
2007,12,03,12,24,13.20
2007,12,03,12,25,13.20
2007,12,03,12,26,13.20
2007,12,03,12,27,13.10
2007,12,03,12,28,13.10
2007,12,03,12,29,13.10
2007,12,03,12,30,13.20
2007,12,03,12,31,13.20
2007,12,03,12,32,13.20
2007,12,03,12,33,13.30
2007,12,03,12,34,13.30
2007,12,03,12,35,13.30
2007,12,03,12,36,13.20
2007,12,03,12,37,13.10
2007,12,03,12,38,13.20
2007,12,03,12,39,13.20
2007,12,03,12,40,13.30
2007,12,03,12,41,13.30
2007,12,03,12,42,13.40
2007,12,03,12,43,13.40
2007,12,03,12,44,13.40
2007,12,03,12,45,13.40
2007,12,03,12,46,13.40
2007,12,03,12,47,13.30
2007,12,03,12,48,13.30
2007,12,03,12,49,13.40
2007,12,03,12,50,13.50
2007,12,03,12,51,13.50
2007,12,03,12,52,13.50
2007,12,03,12,53,13.50
2007,12,03,12,54,13.40
2007,12,03,12,55,13.40
2007,12,03,12,56,13.40
2007,12,03,12,57,13.50
2007,12,03,12,58,13.50
2007,12,03,12,59,13.50
2007,12,03,13,00,13.60
2007,12,03,13,01,13.60
2007,12,03,13,02,13.60
2007,12,03,13,03,13.60
2007,12,03,13,04,13.70
2007,12,03,13,05,13.80
2007,12,03,13,06,13.70
2007,12,03,13,07,13.80
2007,12,03,13,08,13.80
2007,12,03,13,09,13.70
2007,12,03,13,10,13.70
2007,12,03,13,11,13.70
2007,12,03,13,12,13.70
2007,12,03,13,13,13.70
2007,12,03,13,14,13.70
2007,12,03,13,15,13.70
2007,12,03,13,16,13.70
2007,12,03,13,17,13.70
2007,12,03,13,18,13.70
2007,12,03,13,19,13.60
2007,12,03,13,20,13.50
2007,12,03,13,21,13.40
2007,12,03,13,22,13.40
2007,12,03,13,23,13.50
2007,12,03,13,24,13.50
2007,12,03,13,25,13.50
2007,12,03,13,26,13.60
2007,12,03,13,27,13.60
2007,12,03,13,28,13.50
2007,12,03,13,29,13.50
2007,12,03,13,30,13.50
2007,12,03,13,31,13.40
2007,12,03,13,32,13.40
2007,12,03,13,33,13.40
2007,12,03,13,34,13.40
2007,12,03,13,35,13.40
2007,12,03,13,36,13.40
2007,12,03,13,37,13.30
2007,12,03,13,38,13.40
2007,12,03,13,39,13.40
2007,12,03,13,40,13.40
2007,12,03,13,41,13.30
2007,12,03,13,42,13.30
2007,12,03,13,43,13.20
2007,12,03,13,44,13.20
2007,12,03,13,45,13.20
2007,12,03,13,46,13.20
2007,12,03,13,47,13.10
2007,12,03,13,48,13.10
2007,12,03,13,49,13.10
2007,12,03,13,50,13.00
2007,12,03,13,51,12.90
2007,12,03,13,52,12.90
2007,12,03,13,53,12.90
2007,12,03,13,54,12.90
2007,12,03,13,55,12.90
2007,12,03,13,56,12.90
2007,12,03,13,57,12.90
2007,12,03,13,58,12.90
2007,12,03,13,59,13.00
2007,12,03,14,00,13.00
2007,12,03,14,01,12.90
2007,12,03,14,02,13.00
2007,12,03,14,03,13.00
2007,12,03,14,04,13.10
2007,12,03,14,05,13.10
2007,12,03,14,06,13.10
2007,12,03,14,07,13.10
2007,12,03,14,08,13.10
2007,12,03,14,09,13.10
2007,12,03,14,10,13.10
2007,12,03,14,11,13.10
2007,12,03,14,12,13.00
2007,12,03,14,13,12.90
2007,12,03,14,14,12.70
2007,12,03,14,15,12.50
2007,12,03,14,16,12.20
2007,12,03,14,17,12.10
2007,12,03,14,18,12.00
2007,12,03,14,19,12.10
2007,12,03,14,20,12.30
2007,12,03,14,21,12.50
2007,12,03,14,22,12.60
2007,12,03,14,23,12.70
2007,12,03,14,24,12.80
2007,12,03,14,25,12.80
2007,12,03,14,26,12.70
2007,12,03,14,27,12.70
2007,12,03,14,28,12.50
2007,12,03,14,29,12.20
2007,12,03,14,30,12.00
2007,12,03,14,31,12.00
2007,12,03,14,32,12.00
2007,12,03,14,33,12.00
2007,12,03,14,34,12.10
2007,12,03,14,35,12.30
2007,12,03,14,36,12.40
2007,12,03,14,37,12.50
2007,12,03,14,38,12.60
2007,12,03,14,39,12.70
2007,12,03,14,40,12.70
2007,12,03,14,41,12.70
2007,12,03,14,42,12.50
2007,12,03,14,43,12.20
2007,12,03,14,44,12.00
2007,12,03,14,45,11.90
2007,12,03,14,46,11.90
2007,12,03,14,47,12.10
2007,12,03,14,48,12.20
2007,12,03,14,49,12.40
2007,12,03,14,50,12.70
2007,12,03,14,51,12.80
2007,12,03,14,52,12.80
2007,12,03,14,53,12.80
2007,12,03,14,54,12.70
2007,12,03,14,55,12.70
2007,12,03,14,56,12.70
2007,12,03,14,57,12.60
2007,12,03,14,58,12.60
2007,12,03,14,59,12.70
2007,12,03,15,00,12.70
2007,12,03,15,01,12.50
2007,12,03,15,02,12.50
2007,12,03,15,03,12.60
2007,12,03,15,04,12.70
2007,12,03,15,05,12.90
2007,12,03,15,06,13.10
2007,12,03,15,07,13.30
2007,12,03,15,08,13.40
2007,12,03,15,09,13.50
2007,12,03,15,10,13.50
2007,12,03,15,11,13.50
2007,12,03,15,12,13.50
2007,12,03,15,13,13.60
2007,12,03,15,14,13.60
2007,12,03,15,15,13.60
2007,12,03,15,16,13.70
2007,12,03,15,17,13.70
2007,12,03,15,18,13.70
2007,12,03,15,19,13.60
2007,12,03,15,20,13.50
2007,12,03,15,21,13.50
2007,12,03,15,22,13.40
2007,12,03,15,23,13.30
2007,12,03,15,24,13.20
2007,12,03,15,25,13.10
2007,12,03,15,26,13.10
2007,12,03,15,27,13.10
2007,12,03,15,28,13.00
2007,12,03,15,29,12.90
2007,12,03,15,30,12.90
2007,12,03,15,31,12.90
2007,12,03,15,32,12.90
2007,12,03,15,33,12.90
2007,12,03,15,34,13.00
2007,12,03,15,35,13.00
2007,12,03,15,36,13.00
2007,12,03,15,37,13.00
2007,12,03,15,38,13.00
2007,12,03,15,39,13.00
2007,12,03,15,40,13.10
2007,12,03,15,41,13.20
2007,12,03,15,42,13.20
2007,12,03,15,43,13.20
2007,12,03,15,44,13.20
2007,12,03,15,45,13.20
2007,12,03,15,46,13.10
2007,12,03,15,47,13.10
2007,12,03,15,48,13.20
2007,12,03,15,49,13.20
2007,12,03,15,50,13.20
2007,12,03,15,51,13.20
2007,12,03,15,52,13.30
2007,12,03,15,53,13.30
2007,12,03,15,54,13.50
2007,12,03,15,55,13.70
2007,12,03,15,56,13.80
2007,12,03,15,57,13.80
2007,12,03,15,58,13.80
2007,12,03,15,59,13.80
2007,12,03,16,00,13.80
2007,12,03,16,01,13.70
2007,12,03,16,02,13.60
2007,12,03,16,03,13.60
2007,12,03,16,04,13.50
2007,12,03,16,05,13.40
2007,12,03,16,06,13.30
2007,12,03,16,07,13.40
2007,12,03,16,08,13.40
2007,12,03,16,09,13.30
2007,12,03,16,10,13.20
2007,12,03,16,11,13.10
2007,12,03,16,12,12.90
2007,12,03,16,13,12.80
2007,12,03,16,14,12.60
2007,12,03,16,15,12.50
2007,12,03,16,16,12.40
2007,12,03,16,17,12.40
2007,12,03,16,18,12.30
2007,12,03,16,19,12.30
2007,12,03,16,20,12.30
2007,12,03,16,21,12.30
2007,12,03,16,22,12.40
2007,12,03,16,23,12.50
2007,12,03,16,24,12.80
2007,12,03,16,25,13.00
2007,12,03,16,26,13.10
2007,12,03,16,27,13.30
2007,12,03,16,28,13.30
2007,12,03,16,29,13.30
2007,12,03,16,30,13.30
2007,12,03,16,31,13.30
2007,12,03,16,32,13.30
2007,12,03,16,33,13.30
2007,12,03,16,34,13.30
2007,12,03,16,35,13.20
2007,12,03,16,36,13.20
2007,12,03,16,37,13.10
2007,12,03,16,38,13.00
2007,12,03,16,39,12.90
2007,12,03,16,40,13.00
2007,12,03,16,41,13.00
2007,12,03,16,42,13.00
2007,12,03,16,43,13.10
2007,12,03,16,44,13.20
2007,12,03,16,45,13.20
2007,12,03,16,46,13.20
2007,12,03,16,47,13.20
2007,12,03,16,48,13.10
2007,12,03,16,49,13.00
2007,12,03,16,50,12.90
2007,12,03,16,51,12.80
2007,12,03,16,52,12.70
2007,12,03,16,53,12.60
2007,12,03,16,54,12.60
2007,12,03,16,55,12.70
2007,12,03,16,56,12.70
2007,12,03,16,57,12.70
2007,12,03,16,58,12.60
2007,12,03,16,59,12.60
2007,12,03,17,00,12.60
2007,12,03,17,01,12.60
2007,12,03,17,02,12.60
2007,12,03,17,03,12.70
2007,12,03,17,04,12.60
2007,12,03,17,05,12.50
2007,12,03,17,06,12.50
2007,12,03,17,07,12.40
2007,12,03,17,08,12.40
2007,12,03,17,09,12.40
2007,12,03,17,10,12.40
2007,12,03,17,11,12.30
2007,12,03,17,12,12.30
2007,12,03,17,13,12.30
2007,12,03,17,14,12.30
2007,12,03,17,15,12.30
2007,12,03,17,16,12.30
2007,12,03,17,17,12.30
2007,12,03,17,18,12.30
2007,12,03,17,19,12.40
2007,12,03,17,20,12.30
2007,12,03,17,21,12.30
2007,12,03,17,22,12.20
2007,12,03,17,23,12.20
2007,12,03,17,24,12.20
2007,12,03,17,25,12.30
2007,12,03,17,26,12.30
2007,12,03,17,27,12.40
2007,12,03,17,28,12.40
2007,12,03,17,29,12.40
2007,12,03,17,30,12.50
2007,12,03,17,31,12.50
2007,12,03,17,32,12.50
2007,12,03,17,33,12.60
2007,12,03,17,34,12.50
2007,12,03,17,35,12.50
2007,12,03,17,36,12.40
2007,12,03,17,37,12.50
2007,12,03,17,38,12.60
2007,12,03,17,39,12.60
2007,12,03,17,40,12.60
2007,12,03,17,41,12.50
2007,12,03,17,42,12.60
2007,12,03,17,43,12.90
2007,12,03,17,44,13.20
2007,12,03,17,45,13.40
2007,12,03,17,46,13.50
2007,12,03,17,47,13.50
2007,12,03,17,48,13.60
2007,12,03,17,49,13.60
2007,12,03,17,50,13.70
2007,12,03,17,51,13.80
2007,12,03,17,52,13.90
2007,12,03,17,53,14.00
2007,12,03,17,54,14.10
2007,12,03,17,55,14.20
2007,12,03,17,56,14.20
2007,12,03,17,57,14.20
2007,12,03,17,58,14.20
2007,12,03,17,59,14.20
2007,12,03,18,00,14.20
2007,12,03,18,01,14.20
2007,12,03,18,02,14.10
2007,12,03,18,03,14.10
2007,12,03,18,04,14.10
2007,12,03,18,05,14.00
2007,12,03,18,06,13.90
2007,12,03,18,07,13.90
2007,12,03,18,08,13.80
2007,12,03,18,09,13.80
2007,12,03,18,10,13.80
2007,12,03,18,11,13.80
2007,12,03,18,12,13.80
2007,12,03,18,13,13.80
2007,12,03,18,14,13.80
2007,12,03,18,15,13.90
2007,12,03,18,16,13.90
2007,12,03,18,17,13.90
2007,12,03,18,18,13.90
2007,12,03,18,19,14.00
2007,12,03,18,20,14.10
2007,12,03,18,21,14.10
2007,12,03,18,22,14.00
2007,12,03,18,23,14.00
2007,12,03,18,24,13.90
2007,12,03,18,25,13.90
2007,12,03,18,26,13.90
2007,12,03,18,27,13.90
2007,12,03,18,28,13.90
2007,12,03,18,29,14.00
2007,12,03,18,30,14.00
2007,12,03,18,31,14.00
2007,12,03,18,32,14.00
2007,12,03,18,33,14.00
2007,12,03,18,34,14.00
2007,12,03,18,35,13.90
2007,12,03,18,36,13.80
2007,12,03,18,37,13.80
2007,12,03,18,38,13.80
2007,12,03,18,39,13.80
2007,12,03,18,40,13.90
2007,12,03,18,41,14.00
2007,12,03,18,42,14.00
2007,12,03,18,43,14.10
2007,12,03,18,44,14.10
2007,12,03,18,45,14.10
2007,12,03,18,46,14.10
2007,12,03,18,47,14.10
2007,12,03,18,48,14.00
2007,12,03,18,49,14.00
2007,12,03,18,50,13.90
2007,12,03,18,51,13.80
2007,12,03,18,52,13.70
2007,12,03,18,53,13.60
2007,12,03,18,54,13.50
2007,12,03,18,55,13.40
2007,12,03,18,56,13.30
2007,12,03,18,57,13.30
2007,12,03,18,58,13.20
2007,12,03,18,59,13.20
2007,12,03,19,00,13.00
2007,12,03,19,01,12.80
2007,12,03,19,02,12.70
2007,12,03,19,03,12.70
2007,12,03,19,04,12.80
2007,12,03,19,05,12.80
2007,12,03,19,06,12.80
2007,12,03,19,07,12.70
2007,12,03,19,08,12.60
2007,12,03,19,09,12.50
2007,12,03,19,10,12.30
2007,12,03,19,11,12.10
2007,12,03,19,12,12.00
2007,12,03,19,13,12.00
2007,12,03,19,14,12.00
2007,12,03,19,15,12.00
2007,12,03,19,16,12.00
2007,12,03,19,17,12.10
2007,12,03,19,18,12.20
2007,12,03,19,19,12.30
2007,12,03,19,20,12.40
2007,12,03,19,21,12.50
2007,12,03,19,22,12.50
2007,12,03,19,23,12.50
2007,12,03,19,24,12.50
2007,12,03,19,25,12.50
2007,12,03,19,26,12.50
2007,12,03,19,27,12.60
2007,12,03,19,28,12.50
2007,12,03,19,29,12.60
2007,12,03,19,30,12.60
2007,12,03,19,31,12.70
2007,12,03,19,32,12.60
2007,12,03,19,33,12.60
2007,12,03,19,34,12.50
2007,12,03,19,35,12.50
2007,12,03,19,36,12.40
2007,12,03,19,37,12.40
2007,12,03,19,38,12.40
2007,12,03,19,39,12.40
2007,12,03,19,40,12.40
2007,12,03,19,41,12.30
2007,12,03,19,42,12.30
2007,12,03,19,43,12.30
2007,12,03,19,44,12.30
2007,12,03,19,45,12.20
2007,12,03,19,46,12.20
2007,12,03,19,47,12.20
2007,12,03,19,48,12.10
2007,12,03,19,49,12.10
2007,12,03,19,50,12.10
2007,12,03,19,51,12.10
2007,12,03,19,52,12.10
2007,12,03,19,53,12.10
2007,12,03,19,54,12.00
2007,12,03,19,55,11.90
2007,12,03,19,56,11.90
2007,12,03,19,57,11.80
2007,12,03,19,58,11.70
2007,12,03,19,59,11.70
2007,12,03,20,00,11.60
2007,12,03,20,01,11.60
2007,12,03,20,02,11.60
2007,12,03,20,03,11.60
2007,12,03,20,04,11.60
2007,12,03,20,05,11.50
2007,12,03,20,06,11.60
2007,12,03,20,07,11.60
2007,12,03,20,08,11.60
2007,12,03,20,09,11.60
2007,12,03,20,10,11.60
2007,12,03,20,11,11.60
2007,12,03,20,12,11.60
2007,12,03,20,13,11.70
2007,12,03,20,14,11.60
2007,12,03,20,15,11.60
2007,12,03,20,16,11.50
2007,12,03,20,17,11.50
2007,12,03,20,18,11.50
2007,12,03,20,19,11.50
2007,12,03,20,20,11.40
2007,12,03,20,21,11.40
2007,12,03,20,22,11.30
2007,12,03,20,23,11.30
2007,12,03,20,24,11.30
2007,12,03,20,25,11.30
2007,12,03,20,26,11.30
2007,12,03,20,27,11.20
2007,12,03,20,28,11.20
2007,12,03,20,29,11.20
2007,12,03,20,30,11.10
2007,12,03,20,31,11.20
2007,12,03,20,32,11.20
2007,12,03,20,33,11.20
2007,12,03,20,34,11.20
2007,12,03,20,35,11.20
2007,12,03,20,36,11.10
2007,12,03,20,37,11.20
2007,12,03,20,38,11.20
2007,12,03,20,39,11.30
2007,12,03,20,40,11.40
2007,12,03,20,41,11.40
2007,12,03,20,42,11.40
2007,12,03,20,43,11.50
2007,12,03,20,44,11.50
2007,12,03,20,45,11.50
2007,12,03,20,46,11.50
2007,12,03,20,47,11.60
2007,12,03,20,48,11.60
2007,12,03,20,49,11.50
2007,12,03,20,50,11.40
2007,12,03,20,51,11.40
2007,12,03,20,52,11.40
2007,12,03,20,53,11.40
2007,12,03,20,54,11.40
2007,12,03,20,55,11.40
2007,12,03,20,56,11.30
2007,12,03,20,57,11.30
2007,12,03,20,58,11.30
2007,12,03,20,59,11.30
2007,12,03,21,00,11.30
2007,12,03,21,01,11.20
2007,12,03,21,02,11.20
2007,12,03,21,03,11.30
2007,12,03,21,04,11.40
2007,12,03,21,05,11.40
2007,12,03,21,06,11.40
2007,12,03,21,07,11.40
2007,12,03,21,08,11.40
2007,12,03,21,09,11.40
2007,12,03,21,10,11.30
2007,12,03,21,11,11.30
2007,12,03,21,12,11.20
2007,12,03,21,13,11.20
2007,12,03,21,14,11.20
2007,12,03,21,15,11.20
2007,12,03,21,16,11.10
2007,12,03,21,17,11.10
2007,12,03,21,18,11.10
2007,12,03,21,19,11.10
2007,12,03,21,20,11.00
2007,12,03,21,21,11.10
2007,12,03,21,22,11.10
2007,12,03,21,23,11.00
2007,12,03,21,24,11.00
2007,12,03,21,25,11.00
2007,12,03,21,26,10.90
2007,12,03,21,27,10.90
2007,12,03,21,28,10.90
2007,12,03,21,29,11.00
2007,12,03,21,30,11.00
2007,12,03,21,31,11.10
2007,12,03,21,32,11.30
2007,12,03,21,33,11.30
2007,12,03,21,34,11.30
2007,12,03,21,35,11.40
2007,12,03,21,36,11.40
2007,12,03,21,37,11.40
2007,12,03,21,38,11.40
2007,12,03,21,39,11.30
2007,12,03,21,40,11.30
2007,12,03,21,41,11.20
2007,12,03,21,42,11.20
2007,12,03,21,43,11.10
2007,12,03,21,44,11.10
2007,12,03,21,45,11.10
2007,12,03,21,46,11.00
2007,12,03,21,47,11.00
2007,12,03,21,48,11.00
2007,12,03,21,49,11.10
2007,12,03,21,50,11.20
2007,12,03,21,51,11.30
2007,12,03,21,52,11.40
2007,12,03,21,53,11.60
2007,12,03,21,54,11.70
2007,12,03,21,55,11.70
2007,12,03,21,56,11.70
2007,12,03,21,57,11.70
2007,12,03,21,58,11.60
2007,12,03,21,59,11.70
2007,12,03,22,00,11.80
2007,12,03,22,01,12.10
2007,12,03,22,02,12.20
2007,12,03,22,03,12.10
2007,12,03,22,04,12.00
2007,12,03,22,05,11.90
2007,12,03,22,06,11.80
2007,12,03,22,07,11.70
2007,12,03,22,08,11.60
2007,12,03,22,09,11.60
2007,12,03,22,10,11.60
2007,12,03,22,11,11.70
2007,12,03,22,12,11.70
2007,12,03,22,13,11.80
2007,12,03,22,14,11.80
2007,12,03,22,15,11.90
2007,12,03,22,16,11.90
2007,12,03,22,17,11.80
2007,12,03,22,18,11.80
2007,12,03,22,19,11.70
2007,12,03,22,20,11.70
2007,12,03,22,21,11.60
2007,12,03,22,22,11.60
2007,12,03,22,23,11.70
2007,12,03,22,24,11.80
2007,12,03,22,25,11.80
2007,12,03,22,26,11.90
2007,12,03,22,27,12.00
2007,12,03,22,28,12.00
2007,12,03,22,29,12.10
2007,12,03,22,30,12.30
2007,12,03,22,31,12.50
2007,12,03,22,32,12.70
2007,12,03,22,33,12.80
2007,12,03,22,34,13.00
2007,12,03,22,35,13.10
2007,12,03,22,36,13.20
2007,12,03,22,37,13.30
2007,12,03,22,38,13.40
2007,12,03,22,39,13.40
2007,12,03,22,40,13.40
2007,12,03,22,41,13.50
2007,12,03,22,42,13.60
2007,12,03,22,43,13.70
2007,12,03,22,44,13.60
2007,12,03,22,45,13.60
2007,12,03,22,46,13.70
2007,12,03,22,47,13.70
2007,12,03,22,48,13.80
2007,12,03,22,49,13.80
2007,12,03,22,50,13.90
2007,12,03,22,51,13.80
2007,12,03,22,52,13.80
2007,12,03,22,53,13.70
2007,12,03,22,54,13.60
2007,12,03,22,55,13.50
2007,12,03,22,56,13.40
2007,12,03,22,57,13.40
2007,12,03,22,58,13.40
2007,12,03,22,59,13.40
2007,12,03,23,00,13.50
2007,12,03,23,01,13.50
2007,12,03,23,02,13.50
2007,12,03,23,03,13.60
2007,12,03,23,04,13.50
2007,12,03,23,05,13.40
2007,12,03,23,06,13.30
2007,12,03,23,07,13.30
2007,12,03,23,08,13.30
2007,12,03,23,09,13.30
2007,12,03,23,10,13.30
2007,12,03,23,11,13.30
2007,12,03,23,12,13.20
2007,12,03,23,13,13.20
2007,12,03,23,14,13.20
2007,12,03,23,15,13.20
2007,12,03,23,16,13.30
2007,12,03,23,17,13.30
2007,12,03,23,18,13.30
2007,12,03,23,19,13.30
2007,12,03,23,20,13.30
2007,12,03,23,21,13.20
2007,12,03,23,22,13.20
2007,12,03,23,23,13.20
2007,12,03,23,24,13.10
2007,12,03,23,25,13.10
2007,12,03,23,26,13.00
2007,12,03,23,27,13.10
2007,12,03,23,28,13.10
2007,12,03,23,29,13.10
2007,12,03,23,30,13.10
2007,12,03,23,31,13.10
2007,12,03,23,32,13.00
2007,12,03,23,33,13.10
2007,12,03,23,34,13.20
2007,12,03,23,35,13.30
2007,12,03,23,36,13.40
2007,12,03,23,37,13.50
2007,12,03,23,38,13.50
2007,12,03,23,39,13.50
2007,12,03,23,40,13.50
2007,12,03,23,41,13.40
2007,12,03,23,42,13.50
2007,12,03,23,43,13.50
2007,12,03,23,44,13.50
2007,12,03,23,45,13.60
2007,12,03,23,46,13.60
2007,12,03,23,47,13.60
2007,12,03,23,48,13.60
2007,12,03,23,49,13.60
2007,12,03,23,50,13.60
2007,12,03,23,51,13.60
2007,12,03,23,52,13.60
2007,12,03,23,53,13.70
2007,12,03,23,54,13.80
2007,12,03,23,55,13.80
2007,12,03,23,56,13.80
2007,12,03,23,57,13.70
2007,12,03,23,58,13.70
2007,12,03,23,59,13.70
